Abilene Dyess, TX

1:08 AM CST on November 20, 2019 (GMT -0600)
Dyess Air Force Base

Weather History for KDYS - October, 2019

Change the Weather History Date:

Tuesday, October 22, 2019

  Actual Average Record
Temperature  
Mean Temperature 57 °F -  
Max Temperature 77 °F 74 °F 91 °F (2003)
Min Temperature 37 °F 54 °F 37 °F (2019)
Degree Days  
Heating Degree Days 8    
Growing Degree Days 7 (Base 50)    
Moisture  
Dew Point 28 °F    
Average Humidity 34    
Maximum Humidity 65    
Minimum Humidity 16    
Precipitation  
Precipitation 0.00 in - - ()
Sea Level Pressure  
Sea Level Pressure 30.10 in    
Wind  
Wind Speed 5 mph (SSE)    
Max Wind Speed 14 mph    
Max Gust Speed 22 mph    
Visibility 9 miles    
Events      
Averages and records for this station are not official NWS values.
T = Trace of Precipitation, MM = Missing Value Source: NWS Daily Summary

Daily Weather History Graph

Daily Weather History Graph

Search for Another Location

Airport or City:

Astronomy

Oct. 22, 2019 Rise Set
Actual Time 7:48 AM CDT 6:58 PM CDT
Civil Twilight 7:23 AM CDT 7:23 PM CDT
Nautical Twilight 6:54 AM CDT 7:52 PM CDT
Astronomical Twilight 6:26 AM CDT 8:21 PM CDT
Moon 1:27 AM CDT (10/22) 3:43 PM CDT (10/22)
Length of Visible Light 12h 00m
Length of Day
11h 10m
Last Quarter, 37% of the Moon is Illuminated
Oct 22
Last Quarter
Oct 27
New
Nov 4
First Quarter
Nov 12
Full
Nov 19
Last Quarter

Hourly Weather History & Observations

Time (CDT) Temp. Windchill Dew Point Humidity Pressure Visibility Wind Dir Wind Speed Gust Speed Precip Events Conditions
12:56 AM 48.9 °F - 22.5 °F 35% 30.06 in 10.0 mi SE 4.6 mph - N/A   Clear
1:56 AM 44.2 °F 42.7 °F 25.3 °F 47% 30.07 in 7.0 mi South 3.5 mph - N/A   Clear
2:56 AM 45.0 °F - 24.4 °F 45% 30.09 in 10.0 mi Calm Calm - N/A   Clear
3:56 AM 43.5 °F - 27.1 °F 53% 30.09 in 6.0 mi Calm Calm - N/A   Haze
5:56 AM 40.1 °F 36.9 °F 27.7 °F 61% 30.14 in 7.0 mi NNW 4.6 mph - N/A   Clear
6:56 AM 39.6 °F - 26.1 °F 58% 30.17 in 10.0 mi Calm Calm - N/A   Clear
7:56 AM 37.2 °F - 26.6 °F 65% 30.20 in 10.0 mi Calm Calm - N/A   Clear
8:56 AM 46.0 °F - 27.5 °F 48% 30.22 in 10.0 mi Calm Calm - N/A   Clear
9:56 AM 52.7 °F - 26.4 °F 36% 30.25 in 7.0 mi Calm Calm - N/A   Clear
10:56 AM 59.4 °F - 27.9 °F 30% 30.23 in 10.0 mi Calm Calm - N/A   Clear
11:56 AM 66.4 °F - 29.5 °F 25% 30.20 in 10.0 mi ESE 3.5 mph - N/A   Clear
12:56 PM 70.3 °F - 28.6 °F 21% 30.17 in 10.0 mi SE 8.1 mph - N/A   Clear
1:56 PM 73.9 °F - 26.4 °F 17% 30.13 in 10.0 mi SE 11.5 mph - N/A   Clear
2:39 PM 77.0 °F - 26.6 °F 16% 30.09 in 10.0 mi South 12.7 mph 18.4 mph N/A   Clear
3:56 PM 77.0 °F - 27.3 °F 16% 30.06 in 10.0 mi South 13.8 mph 21.9 mph N/A   Clear
4:56 PM 77.4 °F - 27.7 °F 16% 30.05 in 10.0 mi SSE 11.5 mph 17.3 mph N/A   Clear
5:56 PM 76.5 °F - 29.8 °F 18% 30.03 in 10.0 mi South 11.5 mph - N/A   Clear
6:56 PM 70.5 °F - 29.8 °F 22% 30.02 in 10.0 mi SSE 9.2 mph - N/A   Clear
7:56 PM 68.4 °F - 30.2 °F 24% 30.03 in 10.0 mi SE 10.4 mph - N/A   Clear
8:56 PM 64.2 °F - 29.5 °F 27% 30.02 in 10.0 mi ESE 11.5 mph - N/A   Clear
9:56 PM 61.3 °F - 29.7 °F 30% 30.01 in 10.0 mi SE 6.9 mph - N/A   Clear
10:56 PM 61.5 °F - 28.9 °F 29% 29.99 in 10.0 mi SSE 13.8 mph - N/A   Clear
11:56 PM 58.8 °F - 29.8 °F 33% 29.97 in 10.0 mi SSE 12.7 mph - N/A   Clear